Flag for Argentina

Past Weather in San Luis, San Luis, Argentina — Yesterday and Last 2 Weeks

Now
80 °F

Sunny.


Feels Like: 78 °F
Forecast: 76 / 48 °F
Wind: 14 mph from Northwest

Location: Villa Dolores Aerodrome
Current Time: Sep 28, 2020 at 5:00:45 pm
Latest Report: Sep 28, 2020 at 4:00 pm
Visibility: 2 mi
Pressure29.81 "Hg(27.42 "Hg at 731m altitude)
Humidity: 13%
Dew Point: 25 °F
Location of San LuisLocation

Past Weather in San Luis — Graph

°F

San Luis Temperature Yesterday

Maximum temperature yesterday: 74 °F (at 4:00 pm)
Minimum temperature yesterday: 45 °F (at 7:00 am)
Average temperature yesterday: 58 °F

High & Low Weather Summary for the Past Weeks

 TemperatureHumidityPressure
High92 °F (Sep 24, 4:00 pm)86% (Sep 26, 7:00 am)30.40 "Hg (Sep 26, 7:00 am)
Low38 °F (Sep 14, 8:00 am)8% (Sep 22, 3:00 pm)29.55 "Hg (Sep 25, 5:00 pm)
Average65 °F31%30.00 "Hg
* Reported Sep 13 3:00 pm — Sep 28 3:00 pm, San Luis. Weather by CustomWeather, © 2020

Note: Actual official high and low records may vary slightly from our data, if they occured in-between our weather recording intervals... More about our weather records

San Luis Weather History for the Previous 24 Hours

Scroll right to see more
 ConditionsComfort  
Time TempWeatherWind HumidityBarometerVisibility
3:00 pm
Mon, Sep 28
80 °FSunny.14 mph13%29.86 "Hg3 mi
2:00 pm76 °FSunny.12 mph15%29.92 "Hg12 mi
1:00 pm74 °FSunny.12 mph19%29.98 "Hg12 mi
12:00 pm71 °FSunny.6 mph18%29.99 "Hg12 mi
11:00 am69 °FPassing clouds.5 mph21%30.01 "Hg12 mi
10:00 am67 °FSunny.3 mph25%30.02 "Hg19 mi
9:00 am61 °FSunny.3 mph28%30.03 "Hg19 mi
8:00 am51 °FSunny.3 mph37%30.04 "Hg19 mi
7:00 am44 °FClear.6 mph46%30.03 "Hg19 mi
6:00 am46 °FClear.3 mph51%29.99 "Hg19 mi
5:00 am49 °FClear.3 mph49%29.99 "Hg19 mi
4:00 am51 °FClear.7 mph37%30.00 "Hg19 mi
3:00 am51 °FClear.3 mph37%30.03 "Hg19 mi
2:00 am50 °FClear.2 mph37%30.02 "Hg19 mi
1:00 am49 °FClear.2 mph47%30.11 "Hg19 mi
12:00 am49 °FClear.2 mph41%30.06 "Hg19 mi
11:00 pm
Sun, Sep 27
51 °FClear.7 mph34%30.06 "Hg19 mi
10:00 pm56 °FClear.6 mph30%30.04 "Hg19 mi
8:00 pm64 °FClear.3 mph21%30.01 "Hg19 mi
7:00 pm70 °FSunny.2 mph21%29.98 "Hg19 mi
6:00 pm73 °FPassing clouds.6 mph19%29.96 "Hg19 mi
5:00 pm74 °FPassing clouds.18 mph24%29.95 "Hg19 mi
Weather by CustomWeather, © 2020

See weather overview